sat.trackr.live / text

‹ back to catalog

STARLINK-36758

NORAD 67926 · 2026-036Y

PAYLOAD ACTIVE UNKNOWN

§ Identity

Operator
Country
US
Launch date
2026-02-22
Launch site
AFETR
Launch vehicle
Mass (kg)
RCS (m²)

Purposes: comms

External: N2YO · Heavens-Above · Gunter

§ Orbital elements

Epoch: 2026-05-25T03:16:14.848608Z

Period
94.27 min
Inclination
43.0016°
Eccentricity
0.0001211
Mean motion
15.27594249 rev/d
Perigee alt
482.2 km
Apogee alt
483.8 km
Semi-major
6,861.1 km
B*
5.0090e-4
RAAN
173.5251°
Arg perigee
262.1887°
Mean anomaly
97.8828°
Rev number
1,541

§ Raw data

STARLINK-367581 67926U 26036Y   26145.13628297  .00013553  00000+0  50090-3 0  99962 67926  43.0016 173.5251 0001211 262.1887  97.8828 15.27594249 15410

JSON: /api/v1/satellites/67926 · /tle

For live sub-satellite position, see the globe view (requires WebGL).

§ Visibility from observer

Set your observer location to see the next 7 days of passes ≥ 10°. The values pass through the URL so the page stays shareable.

No JS? Fill the form by hand. The geolocation button needs JavaScript.